This is the latest recevied weather packets stored in our database for station/object KD9IXX-13. If no packets are shown the sender has not sent any weather packets the latest 10 day(s).
| Time | Temp. | Humidity | Pressure | Rain* | Wind** | Luminosity | Snow |
|---|---|---|---|---|---|---|---|
| 1777752901 | 12.78° C | 43% | 1019.6 hPa | 0 mm | - | 617 W/m² | - |
| 1777752602 | 12.22° C | 42% | 1019.4 hPa | 0 mm | - | 613 W/m² | - |
| 1777752302 | 12.22° C | 43% | 1019.5 hPa | 0 mm | - | 586 W/m² | - |
| 1777752003 | 13.33° C | 42% | 1019.7 hPa | 0 mm | - | 630 W/m² | - |
| 1777751701 | 12.78° C | 40% | 1019.7 hPa | 0 mm | - | 632 W/m² | - |
| 1777751402 | 12.78° C | 45% | 1019.8 hPa | 0 mm | - | 663 W/m² | - |
| 1777751102 | 12.22° C | 42% | 1019.7 hPa | 0 mm | - | 719 W/m² | - |
| 1777750802 | 11.67° C | 45% | 1019.9 hPa | 0 mm | - | 703 W/m² | - |
| 1777750502 | 12.22° C | 45% | 1020.1 hPa | 0 mm | - | 406 W/m² | - |
| 1777750202 | 12.78° C | 40% | 1020.1 hPa | 0 mm | - | 748 W/m² | - |
| 1777749902 | 12.22° C | 43% | 1020 hPa | 0 mm | - | 682 W/m² | - |
| 1777749601 | 11.67° C | 43% | 1020 hPa | 0 mm | - | 261 W/m² | - |
| 1777749302 | 11.67° C | 44% | 1020.3 hPa | 0 mm | - | 309 W/m² | - |
| 1777749002 | 12.22° C | 42% | 1020.2 hPa | 0 mm | - | 327 W/m² | - |
| 1777748702 | 11.67° C | 43% | 1020.4 hPa | 0 mm | - | 636 W/m² | - |
| 1777748402 | 12.22° C | 43% | 1020.2 hPa | 0 mm | - | 246 W/m² | - |
| 1777748102 | 12.22° C | 41% | 1020.4 hPa | 0 mm | - | 773 W/m² | - |
| 1777747802 | 11.11° C | 43% | 1020.6 hPa | 0 mm | - | 745 W/m² | - |
| 1777747502 | 11.11° C | 45% | 1020.7 hPa | 0 mm | - | 212 W/m² | - |
| 1777747202 | 11.67° C | 44% | 1020.6 hPa | 0 mm | - | 249 W/m² | - |
| 1777746902 | 12.22° C | 42% | 1020.7 hPa | 0 mm | - | 297 W/m² | - |
| 1777746602 | 11.11° C | 41% | 1020.7 hPa | 0 mm | - | 883 W/m² | - |
| 1777746302 | 11.11° C | 45% | 1020.8 hPa | 0 mm | - | 281 W/m² | - |
| 1777746003 | 11.11° C | 46% | 1020.7 hPa | 0 mm | - | 267 W/m² | - |
| 1777745702 | 10.56° C | 44% | 1020.6 hPa | 0 mm | - | 262 W/m² | - |
* Rain latest hour (hover to see other rain measurements)
** Current wind speed in m/s (hover to see current wind gust speed)